CW8078 Weather Reports


time (UTC)temp
C
wind
direction
speed
KPH
gust
KPH
rain 1hr
cm
rain 24hr
cm
rain mn
cm
humidity
%
barometer
mb
20260902101803 23 150 0.0 0.0 0.00 0.00 0.00 85 1013.1
20260902101303 23 150 0.0 0.0 0.00 0.00 0.00 85 1013.1
20260902100803 23 150 0.0 0.0 0.00 0.00 0.00 85 1013.0
20260902100302 23 150 0.0 0.0 0.00 0.00 0.00 84 1012.9
20260902094803 23 150 0.0 0.0 0.00 0.00 0.00 84 1012.8
20260902093803 23 150 0.0 0.0 0.00 0.00 0.00 84 1012.8
20260902093303 23 150 0.0 0.0 0.00 0.00 0.00 82 1012.7
20260902091303 24 150 0.0 0.0 0.00 0.00 0.00 82 1012.6
20260902090803 24 150 0.0 0.0 0.00 0.00 0.00 82 1012.5
20260902090303 24 150 0.0 0.0 0.00 0.00 0.00 81 1012.4
20260902084803 25 150 0.0 0.0 0.00 0.00 0.00 80 1012.4
20260902084303 25 150 0.0 0.0 0.00 0.00 0.00 80 1012.3
20260902083803 25 150 0.0 0.0 0.00 0.00 0.00 79 1012.3
20260902083303 25 150 0.0 0.0 0.00 0.00 0.00 80 1012.4
20260902081802 25 150 0.0 0.0 0.00 0.00 0.00 81 1012.5
20260902081302 25 150 0.0 0.0 0.00 0.00 0.00 80 1012.5
20260902080303 26 150 0.0 0.0 0.00 0.00 0.00 78 1012.4
20260902074803 26 150 0.0 0.0 0.00 0.00 0.00 77 1012.2
20260902073803 25 150 0.0 0.0 0.00 0.00 0.00 80 1012.3
20260902073303 25 150 0.0 0.0 0.00 0.00 0.00 80 1012.4
20260902071803 25 150 0.0 0.0 0.00 0.00 0.00 80 1012.4
20260902071303 26 150 0.0 0.0 0.00 0.00 0.00 79 1012.4
20260902070803 26 150 0.0 0.0 0.00 0.00 0.00 78 1012.3
20260902070303 26 150 0.0 0.0 0.00 0.00 0.00 78 1012.3
20260902064803 26 150 0.0 0.0 0.00 0.00 0.00 77 1012.4
20260902064303 26 150 0.0 0.0 0.00 0.00 0.00 77 1012.4
20260902063803 26 150 0.0 0.0 0.00 0.00 0.00 77 1012.3
20260902063303 26 150 0.0 0.0 0.00 0.00 0.00 77 1012.4
20260902061803 26 150 0.0 0.0 0.00 0.00 0.00 75 1012.3
20260902061303 27 150 0.0 0.0 0.00 0.00 0.00 75 1012.3
20260902060803 27 150 0.0 0.0 0.00 0.00 0.00 76 1012.3
20260902060303 27 150 0.0 0.0 0.00 0.00 0.00 75 1012.2
20260902053803 26 138 0.0 0.0 0.00 0.00 0.00 77 1012.2
20260902053303 26 138 0.0 0.0 0.00 0.00 0.00 77 1012.3
20260902051803 26 138 0.0 0.0 0.00 0.00 0.00 76 1012.3
20260902051303 26 138 0.0 0.0 0.00 0.00 0.00 76 1012.3
20260902050803 27 138 0.0 0.0 0.00 0.00 0.00 75 1012.2
20260902050304 27 138 0.0 0.0 0.00 0.00 0.00 75 1012.2
20260902044804 27 138 0.0 0.0 0.00 0.00 0.00 73 1012.1
20260902043803 27 138 0.0 0.0 0.00 0.00 0.00 72 1012.1
20260902043303 28 138 0.0 0.0 0.00 0.00 0.00 71 1012.0
20260902041803 27 157 0.0 0.0 0.00 0.00 0.00 72 1011.9
20260902041303 27 157 0.0 0.0 0.00 0.00 0.00 72 1011.9
20260902040803 28 157 0.0 0.0 0.00 0.00 0.00 71 1011.9
20260902040303 28 157 0.0 0.0 0.00 0.00 0.00 71 1011.9
20260902034803 28 155 0.0 0.0 0.00 0.00 0.00 71 1012.0
20260902034303 28 123 0.0 0.0 0.00 0.00 0.00 71 1012.0
20260902033304 28 123 0.0 0.0 0.00 0.00 0.00 71 1012.1
20260902031803 27 123 0.0 0.0 0.00 0.00 0.00 71 1012.1
20260902031304 27 123 0.0 0.0 0.00 0.00 0.00 72 1012.1
20260902030304 27 123 0.0 0.0 0.00 0.00 0.00 73 1012.1
20260902024803 27 117 0.0 0.0 0.00 0.00 0.00 73 1011.9
20260902024303 27 117 0.0 0.0 0.00 0.00 0.00 75 1011.9
20260902023803 27 117 0.0 0.0 0.00 0.00 0.00 73 1011.8
20260902023303 27 117 0.0 0.0 0.00 0.00 0.00 73 1011.7
20260902021803 27 117 0.0 0.0 0.00 0.00 0.00 74 1011.6
20260902021303 27 117 0.0 0.0 0.00 0.00 0.00 74 1011.6
20260902020803 27 117 0.0 0.0 0.00 0.00 0.00 75 1011.6
20260902020303 27 117 0.0 0.0 0.00 0.00 0.00 75 1011.5
20260902014803 27 117 0.0 0.0 0.00 0.00 0.00 73 1011.4
20260902014303 27 117 0.0 0.0 0.00 0.00 0.00 72 1011.4
20260902013303 28 117 0.0 0.0 0.00 0.00 0.00 72 1011.3
20260902011803 28 117 0.0 0.0 0.00 0.00 0.00 69 1011.2
20260902011303 28 117 0.0 0.0 0.00 0.00 0.00 70 1011.2
20260902010803 28 117 0.0 0.0 0.00 0.00 0.00 70 1011.2
20260902010303 28 117 0.0 0.0 0.00 0.00 0.00 70 1011.2
20260902004803 28 117 0.0 0.0 0.00 0.00 0.00 71 1011.2
20260902004304 29 117 0.0 0.0 0.00 0.00 0.00 70 1011.1
20260902003803 29 117 0.0 0.0 0.00 0.00 0.00 70 1011.1
20260902003304 29 117 0.0 0.0 0.00 0.00 0.00 68 1011.2
20260902001303 30 117 0.0 0.0 0.00 0.00 0.00 68 1011.1
20260902000803 30 117 0.0 0.0 0.00 0.00 0.00 69 1011.1
20260902000304 30 117 0.0 0.0 0.00 0.00 0.00 67 1011.1
20260901234303 31 117 0.0 0.0 0.00 0.00 0.00 66 1011.3
20260901233303 31 117 0.0 0.0 0.00 0.00 0.00 64 1011.2
20260901231804 32 117 0.0 0.0 0.00 0.00 0.00 67 1011.3
20260901231303 32 117 0.0 0.0 0.00 0.00 0.00 65 1011.3
20260901230803 32 117 0.0 0.0 0.00 0.00 0.00 65 1011.3
20260901230303 32 117 0.0 0.0 0.00 0.00 0.00 62 1011.3
20260901224803 32 5 0.0 0.0 0.00 0.00 0.00 63 1011.2
20260901224303 32 5 0.0 0.0 0.00 0.00 0.00 63 1011.2
20260901223804 32 5 0.0 0.0 0.00 0.00 0.00 62 1011.2
20260901223303 33 5 0.0 0.0 0.00 0.00 0.00 61 1011.3
20260901221803 33 5 0.0 0.0 0.00 0.00 0.00 57 1011.4
20260901221303 33 5 0.0 0.0 0.00 0.00 0.00 56 1011.4
20260901220803 33 5 0.0 0.0 0.00 0.00 0.00 52 1011.4
20260901220303 33 5 0.0 0.0 0.00 0.00 0.00 59 1011.3
20260901214804 33 5 0.0 0.0 0.00 0.00 0.00 54 1011.3
20260901214303 33 5 0.0 0.0 0.00 0.00 0.00 54 1011.4
20260901213803 33 5 0.0 0.0 0.00 0.00 0.00 56 1011.4
20260901211303 34 5 0.0 0.0 0.00 0.00 0.00 51 1011.6
20260901210803 35 5 0.0 0.0 0.00 0.00 0.00 52 1011.6
20260901210304 34 5 0.0 0.0 0.00 0.00 0.00 54 1011.6
20260901204803 33 327 0.0 0.0 0.00 0.00 0.00 59 1011.8
20260901204303 33 327 0.0 0.0 0.00 0.00 0.00 60 1011.9
20260901203803 33 319 0.0 0.0 0.00 0.00 0.00 62 1011.9
20260901203304 33 319 0.0 0.0 0.00 0.00 0.00 61 1011.9
20260901200803 35 319 0.0 0.0 0.00 0.00 0.00 46 1012.3
20260901200303 35 319 0.0 0.0 0.00 0.00 0.00 47 1012.4
20260901194803 35 319 0.0 0.0 0.00 0.00 0.00 52 1012.5
20260901194303 35 319 0.0 0.0 0.00 0.00 0.00 50 1012.5
20260901193803 35 319 0.0 0.0 0.00 0.00 0.00 53 1012.5
20260901193303 36 319 0.0 0.0 0.00 0.00 0.00 49 1012.6
20260901191803 36 318 0.0 0.0 0.00 0.00 0.00 46 1012.7
20260901190803 36 224 0.0 0.0 0.00 0.00 0.00 46 1012.8
20260901184803 36 227 0.0 0.0 0.00 0.00 0.00 47 1013.1
20260901184303 36 232 0.0 0.0 0.00 0.00 0.00 50 1013.1
20260901183804 36 232 0.0 0.0 0.00 0.00 0.00 46 1013.1
20260901181804 36 151 0.0 0.0 0.00 0.00 0.00 49 1013.4
20260901181304 36 151 0.0 0.0 0.00 0.00 0.00 48 1013.4
20260901180803 36 151 0.0 0.0 0.00 0.00 0.00 48 1013.5
20260901180304 35 151 0.0 0.0 0.00 0.00 0.00 48 1013.6
20260901174803 35 162 0.0 0.0 0.00 0.00 0.00 49 1013.7
20260901174304 35 165 0.0 0.0 0.00 0.00 0.00 52 1013.7
20260901173804 35 165 0.0 0.0 0.00 0.00 0.00 51 1013.8
20260901173303 35 165 0.0 0.0 0.00 0.00 0.00 53 1013.9
20260901170804 34 178 0.0 0.0 0.00 0.00 0.00 54 1014.1
20260901170307 33 178 0.0 0.0 0.00 0.00 0.00 54 1014.2
20260901164803 32 178 0.0 0.0 0.00 0.00 0.00 59 1014.3
20260901164303 32 181 0.0 0.0 0.00 0.00 0.00 57 1014.3
20260901163803 32 181 0.0 0.0 0.00 0.00 0.00 58 1014.3
20260901163303 31 181 0.0 0.0 0.00 0.00 0.00 60 1014.4
20260901161804 31 181 0.0 0.0 0.00 0.00 0.00 60 1014.6
20260901160804 31 181 0.0 0.0 0.00 0.00 0.00 61 1014.5
20260901160303 30 198 0.0 0.0 0.00 0.00 0.00 62 1014.6
20260901153802 30 215 0.0 0.0 0.00 0.00 0.00 64 1014.6
20260901153302 29 215 0.0 0.0 0.00 0.00 0.00 66 1014.6
20260901151802 28 148 0.0 0.0 0.00 0.00 0.00 70 1014.5
20260901151302 28 148 0.0 0.0 0.00 0.00 0.00 70 1014.6
20260901150802 28 148 0.0 0.0 0.00 0.00 0.00 71 1014.5
20260901150302 28 148 0.0 0.0 0.00 0.00 0.00 70 1014.5
20260901144802 27 135 0.0 0.0 0.00 0.00 0.00 74 1014.6
20260901144302 27 135 0.0 0.0 0.00 0.00 0.00 74 1014.7
20260901143802 27 150 0.0 0.0 0.00 0.00 0.00 74 1014.7
20260901141802 26 150 0.0 0.0 0.00 0.00 0.00 76 1014.8
20260901141302 26 150 0.0 0.0 0.00 0.00 0.00 77 1014.7
20260901140802 26 150 0.0 0.0 0.00 0.00 0.00 77 1014.7
20260901140302 25 150 0.0 0.0 0.00 0.00 0.00 78 1014.8
20260901134802 25 150 0.0 0.0 0.00 0.00 0.00 79 1014.8
20260901134302 25 150 0.0 0.0 0.00 0.00 0.00 79 1014.9
20260901133801 24 150 0.0 0.0 0.00 0.00 0.00 80 1014.8
20260901133302 24 150 0.0 0.0 0.00 0.00 0.00 79 1014.8
20260901131802 23 150 0.0 0.0 0.00 0.00 0.00 85 1014.6
20260901131302 22 150 0.0 0.0 0.00 0.00 0.00 87 1014.6
20260901124802 21 150 0.0 0.0 0.00 0.00 0.00 88 1014.5
20260901123802 21 150 0.0 0.0 0.00 0.00 0.00 89 1014.4
20260901123302 21 150 0.0 0.0 0.00 0.00 0.00 88 1014.3
20260901121802 21 150 0.0 0.0 0.00 0.00 0.00 88 1014.3
20260901121301 21 150 0.0 0.0 0.00 0.00 0.00 88 1014.2
20260901120802 21 150 0.0 0.0 0.00 0.00 0.00 88 1014.1
20260901114303 21 150 0.0 0.0 0.00 0.00 0.00 88 1013.9
20260901113802 21 150 0.0 0.0 0.00 0.00 0.00 87 1013.8
20260901113302 21 150 0.0 0.0 0.00 0.00 0.00 87 1013.7
20260901111802 21 150 0.0 0.0 0.00 0.00 0.00 87 1013.5
20260901110802 21 150 0.0 0.0 0.00 0.00 0.00 87 1013.4
20260901110302 21 150 0.0 0.0 0.00 0.00 0.00 86 1013.3
20260901104802 21 150 0.0 0.0 0.00 0.00 0.00 86 1013.3
20260901104302 21 150 0.0 0.0 0.00 0.00 0.00 86 1013.4
20260901103802 21 150 0.0 0.0 0.00 0.00 0.00 86 1013.4
20260901103301 21 150 0.0 0.0 0.00 0.00 0.00 85 1013.3